This is the latest recevied weather packets stored in our database for station/object WA6ODQ-13. If no packets are shown the sender has not sent any weather packets the latest 10 day(s).
| Time | Temp. | Humidity | Pressure | Rain* | Wind** | Luminosity | Snow |
|---|---|---|---|---|---|---|---|
| 1777852021 | 20° C | 58% | 1009.8 hPa | 0 mm | - | 340 W/m² | - |
| 1777851720 | 20° C | 58% | 1009.7 hPa | 0 mm | - | 331 W/m² | - |
| 1777851415 | 20° C | 58% | 1009.4 hPa | 0 mm | - | 400 W/m² | - |
| 1777851111 | 20° C | 57% | 1009.5 hPa | 0 mm | - | 257 W/m² | - |
| 1777850808 | 20° C | 57% | 1009.5 hPa | 0 mm | - | 289 W/m² | - |
| 1777850506 | 19.44° C | 57% | 1009.4 hPa | 0 mm | - | 313 W/m² | - |
| 1777850204 | 20° C | 57% | 1009.5 hPa | 0 mm | - | 335 W/m² | - |
| 1777849899 | 19.44° C | 57% | 1009.4 hPa | 0 mm | - | 326 W/m² | - |
| 1777849597 | 20° C | 56% | 1009.4 hPa | 0 mm | - | 321 W/m² | - |
| 1777849294 | 19.44° C | 56% | 1009.3 hPa | 0 mm | - | 336 W/m² | - |
| 1777848991 | 20° C | 56% | 1009.4 hPa | 0 mm | - | 376 W/m² | - |
| 1777848691 | 20° C | 55% | 1009.5 hPa | 0 mm | - | 454 W/m² | - |
| 1777848388 | 20° C | 54% | 1009.5 hPa | 0 mm | - | 469 W/m² | - |
| 1777848086 | 20° C | 56% | 1009.5 hPa | 0 mm | - | 462 W/m² | - |
| 1777847784 | 20° C | 56% | 1009.7 hPa | 0 mm | - | 485 W/m² | - |
| 1777847480 | 20.56° C | 56% | 1009.4 hPa | 0 mm | - | 467 W/m² | - |
| 1777847178 | 20.56° C | 55% | 1009.4 hPa | 0 mm | - | 557 W/m² | - |
| 1777846875 | 20° C | 56% | 1009.3 hPa | 0 mm | - | 629 W/m² | - |
| 1777846573 | 20.56° C | 56% | 1009.6 hPa | 0 mm | - | 574 W/m² | - |
| 1777846270 | 20.56° C | 56% | 1009.6 hPa | 0 mm | - | 615 W/m² | - |
| 1777845967 | 20° C | 57% | 1009.8 hPa | 0 mm | - | 653 W/m² | - |
| 1777845663 | 20.56° C | 57% | 1010 hPa | 0 mm | - | 659 W/m² | - |
| 1777845361 | 20° C | 58% | 1009.9 hPa | 0 mm | - | 664 W/m² | - |
| 1777845057 | 20° C | 57% | 1010 hPa | 0 mm | - | 669 W/m² | - |
| 1777844755 | 20.56° C | 57% | 1010.3 hPa | 0 mm | - | 685 W/m² | - |
* Rain latest hour (hover to see other rain measurements)
** Current wind speed in m/s (hover to see current wind gust speed)